{"data":{"norad_id":47486,"epoch":"2026-05-25T02:08:40.411104Z","epoch_age_seconds":70416,"freshness":"FRESH","line1":"1 47486U 21006CB  26145.08935661  .00005063  00000+0  16694-3 0  9996","line2":"2 47486  97.2273 186.7116 0004675 282.5642  77.5077 15.31874694295762","mean_motion":15.31874694,"eccentricity":0.0004675,"inclination_deg":97.2273,"raan_deg":186.7116,"arg_perigee_deg":282.5642,"mean_anomaly_deg":77.5077,"bstar":0.00016694,"rev_number":29576,"period_min":94.002466757898,"perigee_km":467.01768442525,"apogee_km":473.42089755733,"semimajor_km":6848.3562909913,"source":"CELESTRAK","updated_at":"2026-05-25T13:37:56.472745Z"}}